| time (UTC) | temp F | wind direction | speed MPH | gust MPH | rain 1hr in | rain 24hr in | rain mn in | humidity % | barometer mb |
| 20260510093042 | 51 | 42 | 0.0 | 3.0 | 0.00 | 0.53 | 0.00 | 79 | 1010.2 |
| 20260510091536 | 51 | 1 | 0.0 | 3.0 | 0.00 | 0.53 | 0.00 | 79 | 1009.7 |
| 20260510090036 | 51 | 60 | 0.0 | 4.0 | 0.00 | 0.53 | 0.00 | 79 | 1009.7 |
| 20260510084533 | 51 | 359 | 0.0 | 3.0 | 0.00 | 0.53 | 0.00 | 79 | 1009.9 |
| 20260510083029 | 51 | 26 | 0.0 | 2.0 | 0.00 | 0.53 | 0.00 | 78 | 1009.9 |
| 20260510081527 | 52 | 44 | 0.0 | 1.0 | 0.00 | 0.53 | 0.00 | 78 | 1010.2 |
| 20260510080027 | 52 | 48 | 0.0 | 3.0 | 0.00 | 0.53 | 0.00 | 77 | 1010.0 |
| 20260510074525 | 52 | 16 | 0.0 | 4.0 | 0.00 | 0.53 | 0.00 | 77 | 1009.8 |
| 20260510073024 | 52 | 55 | 0.0 | 4.0 | 0.00 | 0.53 | 0.00 | 77 | 1010.3 |
| 20260510071534 | 52 | 6 | 1.0 | 6.0 | 0.00 | 0.53 | 0.00 | 77 | 1010.3 |
| 20260510070021 | 52 | 49 | 0.0 | 5.0 | 0.00 | 0.53 | 0.00 | 77 | 1010.8 |
| 20260510064520 | 52 | 66 | 0.0 | 4.0 | 0.00 | 0.53 | 0.00 | 78 | 1010.6 |
| 20260510063023 | 52 | 254 | 0.0 | 1.0 | 0.00 | 0.53 | 0.00 | 78 | 1010.6 |
| 20260510061534 | 52 | 61 | 0.0 | 2.0 | 0.00 | 0.53 | 0.00 | 78 | 1010.4 |
| 20260510060016 | 52 | 42 | 0.0 | 1.0 | 0.00 | 0.53 | 0.00 | 78 | 1010.0 |
| 20260510054515 | 52 | 54 | 0.0 | 4.0 | 0.00 | 0.53 | 0.00 | 77 | 1010.1 |
| 20260510053014 | 51 | 115 | 0.0 | 3.0 | 0.00 | 0.53 | 0.00 | 77 | 1010.1 |
| 20260510051512 | 52 | 312 | 0.0 | 2.0 | 0.00 | 0.53 | 0.00 | 77 | 1010.1 |
| 20260510050014 | 52 | 34 | 0.0 | 2.0 | 0.00 | 0.53 | 0.00 | 76 | 1009.9 |
| 20260510044509 | 52 | 258 | 0.0 | 3.0 | 0.00 | 0.53 | 0.00 | 76 | 1010.1 |
| 20260510043013 | 52 | 265 | 0.0 | 3.0 | 0.00 | 0.53 | 0.00 | 76 | 1010.1 |
| 20260510041505 | 52 | 32 | 0.0 | 1.0 | 0.00 | 0.53 | 0.00 | 76 | 1010.1 |
| 20260510040004 | 53 | 39 | 0.0 | 2.0 | 0.00 | 0.53 | 0.00 | 75 | 1010.2 |
| 20260510034503 | 53 | 39 | 0.0 | 1.0 | 0.00 | 0.53 | 0.53 | 75 | 1010.0 |
| 20260510033003 | 53 | 32 | 0.0 | 2.0 | 0.00 | 0.53 | 0.53 | 75 | 1010.0 |
| 20260510031502 | 53 | 1 | 0.0 | 2.0 | 0.00 | 0.53 | 0.53 | 75 | 1009.9 |
| 20260510030004 | 53 | 39 | 0.0 | 2.0 | 0.00 | 0.53 | 0.53 | 75 | 1009.9 |
| 20260510024501 | 53 | 8 | 0.0 | 2.0 | 0.00 | 0.53 | 0.53 | 75 | 1010.3 |
| 20260510023001 | 53 | 20 | 0.0 | 3.0 | 0.00 | 0.53 | 0.53 | 75 | 1010.2 |
| 20260510021603 | 53 | 46 | 0.0 | 3.0 | 0.00 | 0.53 | 0.53 | 75 | 1010.0 |
| 20260510020059 | 53 | 19 | 0.0 | 1.0 | 0.00 | 0.53 | 0.53 | 75 | 1010.1 |
| 20260510014559 | 53 | 337 | 1.0 | 4.0 | 0.00 | 0.53 | 0.53 | 75 | 1010.1 |
| 20260510013059 | 53 | 7 | 0.0 | 2.0 | 0.00 | 0.53 | 0.53 | 75 | 1010.0 |
| 20260510011559 | 53 | 13 | 0.0 | 5.0 | 0.00 | 0.53 | 0.53 | 76 | 1010.2 |
| 20260510010057 | 53 | 281 | 0.0 | 2.0 | 0.00 | 0.53 | 0.53 | 76 | 1010.1 |
| 20260510004600 | 53 | 51 | 0.0 | 2.0 | 0.00 | 0.53 | 0.53 | 76 | 1009.9 |
| 20260510003111 | 54 | 40 | 0.0 | 2.0 | 0.00 | 0.53 | 0.53 | 76 | 1010.0 |
| 20260510001555 | 54 | 21 | 0.0 | 1.0 | 0.00 | 0.53 | 0.53 | 76 | 1009.6 |
| 20260509234607 | 54 | 35 | 0.0 | 2.0 | 0.00 | 0.53 | 0.53 | 75 | 1009.2 |
| 20260509233054 | 54 | 50 | 0.0 | 3.0 | 0.00 | 0.53 | 0.53 | 74 | 1009.1 |
| 20260509231556 | 55 | 51 | 0.0 | 7.0 | 0.00 | 0.53 | 0.53 | 73 | 1008.8 |
| 20260509230058 | 56 | 355 | 1.0 | 4.0 | 0.00 | 0.53 | 0.53 | 72 | 1008.7 |
| 20260509224551 | 57 | 21 | 0.0 | 4.0 | 0.00 | 0.53 | 0.53 | 72 | 1008.9 |
| 20260509223051 | 57 | 34 | 0.0 | 3.0 | 0.00 | 0.53 | 0.53 | 72 | 1008.9 |
| 20260509221549 | 57 | 18 | 0.0 | 5.0 | 0.00 | 0.53 | 0.53 | 74 | 1008.9 |
| 20260509220046 | 56 | 271 | 1.0 | 3.0 | 0.00 | 0.53 | 0.53 | 75 | 1008.9 |
| 20260509214543 | 55 | 54 | 0.0 | 1.0 | 0.00 | 0.53 | 0.53 | 78 | 1009.2 |
| 20260509213043 | 55 | 56 | 0.0 | 4.0 | 0.00 | 0.53 | 0.53 | 79 | 1009.2 |
| 20260509211540 | 55 | 30 | 0.0 | 4.0 | 0.00 | 0.53 | 0.53 | 80 | 1009.3 |
| 20260509210041 | 54 | 339 | 0.0 | 3.0 | 0.00 | 0.53 | 0.53 | 82 | 1009.4 |
| 20260509204535 | 54 | 49 | 0.0 | 1.0 | 0.01 | 0.53 | 0.53 | 84 | 1009.6 |
| 20260509203037 | 53 | 51 | 0.0 | 2.0 | 0.01 | 0.53 | 0.53 | 84 | 1009.8 |
| 20260509201532 | 53 | 32 | 0.0 | 3.0 | 0.02 | 0.53 | 0.53 | 84 | 1009.9 |
| 20260509200028 | 52 | 25 | 0.0 | 2.0 | 0.02 | 0.53 | 0.53 | 84 | 1010.1 |
| 20260509194533 | 52 | 27 | 0.0 | 1.0 | 0.02 | 0.52 | 0.52 | 84 | 1010.4 |
| 20260509193024 | 52 | 37 | 0.0 | 2.0 | 0.03 | 0.52 | 0.52 | 84 | 1010.5 |
| 20260509191523 | 51 | 26 | 0.0 | 3.0 | 0.03 | 0.51 | 0.51 | 84 | 1010.6 |
| 20260509190020 | 51 | 360 | 0.0 | 2.0 | 0.04 | 0.50 | 0.50 | 84 | 1010.7 |
| 20260509184518 | 51 | 18 | 0.0 | 5.0 | 0.05 | 0.50 | 0.50 | 84 | 1011.0 |
| 20260509183023 | 51 | 47 | 0.0 | 1.0 | 0.06 | 0.49 | 0.49 | 84 | 1010.8 |
| 20260509181515 | 51 | 31 | 0.0 | 1.0 | 0.06 | 0.48 | 0.48 | 84 | 1010.8 |
| 20260509180013 | 50 | 18 | 0.0 | 1.0 | 0.06 | 0.46 | 0.46 | 84 | 1010.9 |
| 20260509174511 | 50 | 44 | 0.0 | 1.0 | 0.06 | 0.45 | 0.45 | 84 | 1011.1 |
| 20260509173009 | 49 | 36 | 0.0 | 1.0 | 0.04 | 0.43 | 0.43 | 83 | 1011.2 |
| 20260509171509 | 49 | 27 | 0.0 | 0.0 | 0.05 | 0.42 | 0.42 | 83 | 1011.2 |
| 20260509170007 | 49 | 46 | 0.0 | 4.0 | 0.04 | 0.40 | 0.40 | 83 | 1011.2 |
| 20260509164509 | 49 | 36 | 0.0 | 2.0 | 0.04 | 0.39 | 0.39 | 83 | 1011.4 |
| 20260509163002 | 48 | 9 | 0.0 | 2.0 | 0.06 | 0.39 | 0.39 | 84 | 1011.8 |
| 20260509161559 | 48 | 27 | 0.0 | 2.0 | 0.06 | 0.37 | 0.37 | 84 | 1012.1 |
| 20260509160059 | 48 | 32 | 0.0 | 1.0 | 0.08 | 0.36 | 0.36 | 84 | 1012.2 |
| 20260509154556 | 48 | 345 | 0.0 | 1.0 | 0.09 | 0.35 | 0.35 | 84 | 1012.6 |
| 20260509153051 | 47 | 349 | 0.0 | 1.0 | 0.10 | 0.33 | 0.33 | 84 | 1012.8 |
| 20260509151550 | 47 | 28 | 0.0 | 1.0 | 0.11 | 0.31 | 0.31 | 84 | 1013.1 |
| 20260509150047 | 46 | 39 | 0.0 | 1.0 | 0.11 | 0.28 | 0.28 | 82 | 1013.1 |
| 20260509144546 | 46 | 335 | 0.0 | 0.0 | 0.11 | 0.25 | 0.25 | 82 | 1013.0 |
| 20260509143046 | 46 | 334 | 0.0 | 1.0 | 0.11 | 0.23 | 0.23 | 82 | 1013.0 |
| 20260509141545 | 46 | 311 | 0.0 | 1.0 | 0.10 | 0.20 | 0.20 | 82 | 1012.9 |
| 20260509140048 | 45 | 312 | 0.0 | 1.0 | 0.09 | 0.17 | 0.17 | 81 | 1012.9 |
| 20260509134543 | 45 | 312 | 0.0 | 1.0 | 0.07 | 0.14 | 0.14 | 80 | 1012.7 |
| 20260509133040 | 45 | 311 | 0.0 | 1.0 | 0.08 | 0.12 | 0.12 | 78 | 1012.7 |
| 20260509131539 | 44 | 310 | 0.0 | 1.0 | 0.08 | 0.10 | 0.10 | 75 | 1012.7 |
| 20260509130037 | 45 | 309 | 0.0 | 1.0 | 0.07 | 0.08 | 0.08 | 75 | 1012.8 |
| 20260509124536 | 45 | 46 | 0.0 | 1.0 | 0.06 | 0.07 | 0.07 | 75 | 1013.1 |
| 20260509123034 | 46 | 46 | 0.0 | 1.0 | 0.04 | 0.04 | 0.04 | 74 | 1013.1 |
| 20260509121537 | 46 | 347 | 0.0 | 0.0 | 0.02 | 0.02 | 0.02 | 73 | 1013.2 |
| 20260509120029 | 45 | 327 | 0.0 | 0.0 | 0.01 | 0.01 | 0.01 | 73 | 1013.1 |
| 20260509114526 | 45 | 327 | 0.0 | 1.0 | 0.01 | 0.01 | 0.01 | 72 | 1013.1 |
| 20260509113024 | 44 | 348 | 0.0 | 0.0 | 0.00 | 0.00 | 0.00 | 71 | 1013.0 |
| 20260509111519 | 44 | 347 | 0.0 | 0.0 | 0.00 | 0.00 | 0.00 | 71 | 1013.1 |
| 20260509110016 | 43 | 347 | 0.0 | 0.0 | 0.00 | 0.00 | 0.00 | 70 | 1012.9 |
| 20260509104522 | 43 | 4 | 0.0 | 1.0 | 0.00 | 0.00 | 0.00 | 69 | 1013.0 |
| 20260509103013 | 43 | 231 | 0.0 | 1.0 | 0.00 | 0.00 | 0.00 | 69 | 1013.0 |
| 20260509101514 | 42 | 231 | 0.0 | 1.0 | 0.00 | 0.00 | 0.00 | 69 | 1013.2 |
| 20260509100012 | 42 | 231 | 0.0 | 0.0 | 0.00 | 0.00 | 0.00 | 69 | 1013.3 |
| 20260509094510 | 42 | 231 | 0.0 | 0.0 | 0.00 | 0.00 | 0.00 | 67 | 1013.3 |